Weather Roundup
Issued by NWS

Home | Current Version | Previous Version | Text Only | Print | Product List | Glossary On
Versions: 1 2 3 4 5 6 7 8 9 10 11 12 13 14 15 16 17 18 19 20 21 22 23 24 25 26 27 28 29 30 31 32 33 34 35 36 37 38 39 40 41 42 43 44 45 46 47 48 49 50
000
NZUS93 KARX 031759
HRRWXR

CURRENT HOURLY OBSERVATIONS ACROSS
MUCH OF THE UPPER MISSISSIPPI VALLEY
NATIONAL WEATHER SERVICE LA CROSSE WI
1200 PM CST TUE MAR 03 2015


...SOUTHEAST MINNESOTA...


CITY           SKY/WX    TMP DP  RH WIND       PRES   REMARKS
ROCHESTER      CLOUDY    27  23  85 W18G26    29.64F FOG     WCI  14
ROCHESTER/MAYO CLOUDY    28  23  81 W15G22    29.64F WCI  16
WINONA         CLOUDY    30  27  86 W8        29.67F WCI  23
AUSTIN         CLOUDY    28  25  86 NW16G23   29.66F WCI  17
ALBERT LEA     PTSUNNY   28  27  93 W13G22    29.67S WCI  18
DODGE CENTER   CLOUDY    28  25  86 W15G21    29.64F WCI  17
PRESTON        MIX PCPN  26  24  90 W13       29.65S WCI  15
OWATONNA       PTSUNNY   28  25  86 W15       29.68R WCI  17
FARIBAULT      PTSUNNY   30  23  74 W14G22    29.68S WCI  20
$$

...ELSEWHERE IN MINNESOTA...


CITY           SKY/WX    TMP DP  RH WIND       PRES   REMARKS
MINNEAPOLIS    LGT SNOW  28  22  78 W10       29.67S WCI  19
INTNL FALLS    PTSUNNY   16   4  59 W23G30    29.63R WCI  -2
DULUTH         LGT SNOW  22  17  81 W18       29.55F VSB 3/4 WCI   7
RED WING       LGT SNOW  30  21  69 W13       29.66F WCI  20
REDWOOD FALLS  LGT SNOW  22  16  78 NW23G38   29.78R WCI   6
MANKATO        CLOUDY    28  21  74 NW21G29   29.71R WCI  15
FAIRMONT       CLOUDY    27  18  69 NW25G31   29.73R WCI  11
$$

...SOUTHWEST WISCONSIN...


CITY           SKY/WX    TMP DP  RH WIND       PRES   REMARKS
LA CROSSE      CLOUDY    28  24  85 W5        29.66F WCI  23
PRAIRIE DU CHI CLOUDY    28  26  93 CALM      29.67S FOG
BOSCOBEL       CLOUDY    29  26  89 SW7       29.67S FOG     WCI  22
LONE ROCK      CLOUDY    28  26  92 W6        29.65F FOG     WCI  22
PLATTEVILLE    CLOUDY    31  30  94 SW12      29.64S WCI  22
FORT MC COY    CLOUDY    26  25  96 W6        29.66R FOG     WCI  19
CAMP DOUGLAS   LGT SNOW  25  25 100 SW3       29.63F FOG
VIROQUA        CLOUDY    26  26 100 W9        29.63R WCI  16
WIS DELLS      NOT AVBL
$$

...ELSEWHERE IN WISCONSIN...


CITY           SKY/WX    TMP DP  RH WIND       PRES   REMARKS
MILWAUKEE      FRZ DRZL  31  27  85 SW15      29.62F VSB 3/4 WCI  20
MADISON        FRZ DRZL  30  27  88 SW6       29.63F FOG     WCI  24
GREEN BAY      LGT SNOW  28  26  92 SW12      29.62F FOG     WCI  18
EAU CLAIRE     CLOUDY    25  19  78 W8        29.65R WCI  16
BLACK RVR FLS  LGT SNOW  26  23  89 W6        29.63F WCI  20
MEDFORD        LGT SNOW  22  18  83 S6        29.58F WCI  14
WAUSAU         SNOW      22  20  92 SW5       29.58F VSB 1/2 WCI  16
WIS RAPIDS     CLOUDY    24  20  84 SW8       29.63F FOG     WCI  15
MARSHFIELD     LGT SNOW  24  20  84 SW8       29.60S FOG     WCI  15
RICE LAKE      LGT SNOW  26  20  79 SW7       29.65R WCI  18
$$

...NORTHEAST IOWA...


CITY           SKY/WX    TMP DP  RH WIND       PRES   REMARKS
DECORAH        CLOUDY    27  27 100 VRB6      29.64F FOG     WCI  20
MASON CITY     CLOUDY    30  25  81 NW20      29.70S WCI  17
CHARLES CITY   CLOUDY    28  28 100 W14G20    29.69R FOG     WCI  17
OELWEIN        CLOUDY    30  30 100 W15       29.67R FOG     WCI  19
$$

...ELSEWHERE IN IOWA...


CITY           SKY/WX    TMP DP  RH WIND       PRES   REMARKS
DES MOINES     CLOUDY    35  30  82 NW20      29.73R WCI  24
IOWA CITY      CLOUDY    33  31  92 SW9       29.71S FOG     WCI  25
FORT DODGE     CLOUDY    32  27  80 NW9G22    29.74R WCI  24
$$

...NORTHERN ILLINOIS...


CITY           SKY/WX    TMP DP  RH WIND       PRES   REMARKS
CHICAGO-OHARE  FRZ DRZL  32  30  92 SW20G26   29.65F FOG     WCI  20
CHICAGO-MIDWAY CLOUDY    34  30  85 SW17G25   29.67F FOG     WCI  23
MOLINE         CLOUDY    33  30  88 SW14      29.70R FOG     WCI  23
ROCKFORD       DRIZZLE   32  29  88 SW10      29.66F FOG     WCI  24
PEORIA         FOG       35  32  88 SW13      29.73F VSB 3/4 WCI  26
$$

NOTE: "FAIR" INDICATES FEW OR NO CLOUDS BELOW 12,000 FEET WITH NO
SIGNIFICANT WEATHER AND/OR OBSTRUCTIONS TO VISIBILITY. WIND
SPEEDS ARE IN MILES-PER-HOUR.



USA.gov is the U.S. government's official web portal to all federal, state and local government web resources and services.